Dewpoint
55 56 56 56 56 56 56 56 57 57 56 56 56 57 56 56 55 49 32 42 45 67 71 56 56 58 59 57 60 61 59 53 53 54 58 60 59 60 61 58 58 58 58 57 59
55 56 55 56 56 56 56 56 56 56 56 56 56 56 57 56 45 35 53 62 67 71 60 50 46 54 55 55 58 58 58 51 53 56 58 60 60 60 58 57 57 57 57 58 59
55 55 54 54 55 55 55 56 56 56 56 56 56 56 57 55 42 23 63 62 62 69 51 42 42 51 51 53 57 56 54 52 53 55 59 60 61 62 57 56 56 56 57 58 58
55 54 54 55 55 55 55 55 55 55 55 55 56 56 57 49 26 47 62 63 64 58 50 38 40 47 47 49 56 55 54 52 51 53 56 59 59 57 59 61 59 57 58 58 58
54 54 54 54 55 55 55 55 55 55 55 55 55 56 53 35 24 55 59 59 46 51 43 37 38 44 44 46 55 54 51 51 50 48 50 55 57 60 61 61 60 59 58 57 57
54 54 54 54 54 54 55 54 54 54 54 55 55 56 44 24 37 48 42 36 38 47 40 36 37 40 36 40 49 53 52 49 47 45 46 53 56 58 61 60 60 59 57 57 56
54 54 54 53 54 54 54 53 53 54 55 55 56 52 36 25 39 40 36 30 37 42 37 35 33 32 35 38 43 48 49 47 44 43 48 54 56 57 60 59 58 57 56 56 56
54 53 53 54 54 54 54 53 54 57 57 56 56 48 35 29 40 41 42 35 37 38 32 32 35 34 33 38 39 44 45 42 43 44 49 54 55 58 60 60 57 56 56 56 57
54 54 54 54 54 53 52 53 55 56 57 56 52 48 28 51 39 42 40 32 33 34 33 35 36 35 34 32 35 38 38 38 42 43 47 52 54 57 60 59 57 57 55 55 56
55 55 53 53 54 53 53 52 55 57 54 51 44 37 37 31 34 36 39 35 30 32 32 32 30 33 30 31 28 29 33 34 39 43 46 50 59 58 59 59 58 58 58 56 56
55 55 55 54 52 52 50 48 46 45 39 32 26 29 24 30 36 34 33 34 29 29 27 27 24 27 27 27 23 26 30 32 36 42 42 44 53 55 58 58 59 60 61 58 57
55 55 55 53 52 52 49 37 28 29 27 29 25 24 28 36 33 33 36 30 30 26 24 24 23 26 25 24 23 27 27 32 35 41 41 37 36 50 54 57 60 60 60 59 58
55 54 53 52 52 47 39 29 30 29 26 23 24 21 26 31 28 30 33 31 28 26 22 22 19 23 22 26 28 32 30 33 34 34 38 33 34 45 48 53 60 61 60 61 59
53 53 52 52 44 33 30 30 29 29 24 19 20 20 24 24 23 30 32 30 29 22 19 21 19 20 24 29 33 29 28 30 32 33 30 34 30 43 46 49 60 60 60 58 59
53 53 52 50 44 31 31 29 28 29 17 16 17 20 22 22 21 29 30 29 26 25 24 21 17 20 27 32 33 29 28 29 33 31 29 31 31 45 48 50 57 59 59 59 60
53 52 51 47 43 30 30 31 29 22 18 13 14 17 20 21 17 27 26 28 27 27 29 24 21 20 22 28 33 34 33 32 31 29 25 28 25 44 44 54 55 57 60 59 59
52 51 50 45 33 33 32 30 24 19 19 13 14 15 19 18 15 23 26 25 22 25 28 28 27 23 23 27 34 36 33 28 27 24 22 25 23 38 41 43 44 53 56 59 61
51 50 48 41 37 36 34 28 24 19 20 18 15 16 14 12 14 19 23 19 20 25 25 22 22 22 24 30 33 34 30 22 24 19 19 26 25 36 45 52 54 53 51 58 59
50 43 39 35 36 37 32 28 27 24 23 20 16 15 13 13 16 19 20 19 20 24 24 23 21 26 27 31 33 32 31 26 20 18 16 24 33 38 47 50 54 58 54 49 59
45 36 32 33 34 34 29 28 26 25 24 22 18 16 15 15 16 19 24 25 22 24 25 26 23 22 23 24 28 27 30 27 24 24 21 22 31 31 45 49 53 55 56 60 62
42 34 32 32 33 31 26 26 25 26 26 25 25 20 25 22 17 18 23 25 25 24 25 20 25 23 22 22 22 24 26 28 24 21 20 21 29 40 49 51 51 49 51 52 55
33 29 32 30 29 27 26 26 31 25 27 26 26 24 25 26 23 26 24 27 28 26 17 20 20 22 21 23 23 24 23 26 23 28 22 22 29 43 49 49 48 46 46 48 49
31 25 29 30 27 24 26 22 25 25 27 25 25 27 26 24 26 22 24 26 29 27 27 25 18 20 21 21 24 23 24 24 22 22 28 20 33 43 49 46 45 43 44 45 45
28 24 25 28 29 26 24 23 21 25 26 28 28 28 28 27 26 24 23 25 27 28 39 38 20 26 19 21 21 23 21 23 23 22 24 25 38 41 45 44 41 41 42 43 44
28 24 30 24 22 24 24 23 21 21 23 26 27 27 28 27 27 26 25 26 26 35 32 28 24 25 22 19 20 21 21 20 22 23 22 34 38 40 42 44 42 41 40 41 42
32 30 25 27 28 24 28 25 23 26 28 25 25 22 27 31 32 28 27 28 27 28 29 26 27 26 23 22 20 18 18 19 19 22 24 32 37 39 40 42 43 44 43 41 41
37 35 30 32 25 23 24 24 25 29 29 29 30 29 27 30 31 31 31 32 32 33 29 31 25 27 23 22 21 19 19 19 18 20 25 29 37 40 39 40 40 42 42 42 42
Lifted_Index
15 15 15 15 15 15 14 14 14 14 14 14 14 14 14 14 14 13 12 11 9 4 2 2 2 1 -0 -1 -2 -2 -2 -2 -2 -2 -2 -2 -2 -2 -2 -2 -2 -2 -1 -0 -0
15 15 15 15 15 15 15 14 14 14 14 14 14 14 14 14 13 12 11 11 8 4 2 3 3 1 -0 -1 -2 -3 -2 -2 -2 -2 -2 -2 -2 -2 -2 -2 -2 -2 -1 -1 -0
15 15 15 15 15 15 15 15 15 14 15 14 14 14 13 12 11 10 10 10 8 4 3 4 4 2 -0 -1 -2 -3 -2 -2 -2 -2 -2 -3 -2 -2 -2 -2 -2 -2 -1 -1 -0
14 15 15 15 15 15 15 15 15 15 15 15 14 14 13 11 9 8 8 9 7 5 4 5 4 2 0 -1 -2 -3 -2 -2 -2 -2 -2 -3 -3 -2 -2 -2 -2 -2 -1 -1 -1
14 14 14 14 14 14 14 15 15 15 15 15 14 13 12 11 9 8 8 9 8 6 5 6 4 3 1 -0 -2 -3 -2 -2 -1 -1 -1 -2 -3 -3 -2 -2 -2 -2 -1 -1 -1
14 14 14 14 14 14 14 15 15 15 15 15 14 13 12 10 9 8 9 10 9 7 6 6 5 4 3 1 -1 -2 -2 -2 -0 0 -0 -2 -3 -3 -3 -2 -2 -2 -1 -1 -1
13 13 14 14 14 14 14 15 15 15 14 14 13 12 11 10 9 8 9 10 8 7 7 7 6 5 4 2 1 -1 -2 -2 -1 0 -1 -2 -3 -3 -3 -3 -2 -1 -1 -1 -1
13 13 13 13 14 14 14 14 14 13 13 13 12 10 10 9 8 8 8 9 8 7 7 7 7 6 5 3 2 -0 -2 -2 -1 -0 -1 -2 -3 -3 -3 -3 -2 -2 -1 -1 -1
13 13 13 13 13 14 14 13 12 11 11 11 10 9 9 8 8 7 7 8 8 8 7 7 6 6 5 4 2 1 -1 -2 -2 -1 -1 -2 -3 -3 -3 -3 -2 -2 -1 -1 -1
12 12 12 13 13 14 13 11 9 9 9 9 9 9 8 8 8 7 7 7 8 8 7 7 6 5 5 4 3 1 0 -1 -2 -2 -2 -3 -3 -4 -3 -3 -3 -2 -1 -1 -1
12 12 12 12 13 13 11 9 8 8 8 8 8 9 8 8 7 7 7 7 7 7 7 7 6 5 5 4 3 2 0 -1 -2 -2 -3 -3 -3 -3 -3 -3 -3 -2 -2 -1 -1
12 12 12 13 12 12 10 9 8 8 8 8 8 8 8 7 7 6 6 6 6 6 6 6 6 5 5 4 3 2 0 -1 -1 -2 -2 -2 -2 -2 -3 -3 -3 -3 -2 -2 -2
11 12 12 12 11 10 9 8 8 8 7 7 8 8 7 7 6 6 5 5 5 6 6 6 5 5 5 4 3 2 0 -1 -1 -1 -1 -1 -1 -2 -2 -3 -4 -3 -3 -2 -2
10 10 10 9 8 7 7 7 7 6 5 6 7 7 7 6 6 5 5 4 4 5 5 5 5 5 4 3 2 1 1 -0 -1 0 0 -0 -1 -1 -2 -3 -4 -4 -3 -3 -3
9 8 8 7 6 5 5 5 5 4 3 4 5 6 5 5 5 5 5 4 4 4 4 4 5 5 4 3 2 1 1 0 -0 0 -0 -0 -1 -1 -2 -3 -4 -4 -4 -3 -3
7 6 6 5 4 4 4 4 3 2 1 2 3 4 4 3 4 4 4 4 3 3 3 3 4 4 4 3 1 -0 -0 0 0 -0 -0 -0 -1 -1 -2 -2 -3 -3 -4 -4 -4
5 5 4 3 3 3 3 2 2 1 1 1 2 2 2 2 2 3 3 3 3 2 2 2 3 4 3 2 0 -1 -1 -0 0 -0 -0 -0 -1 -1 -1 -1 -2 -3 -3 -4 -4
4 3 3 3 2 2 2 1 1 1 1 1 1 1 0 0 1 1 2 2 2 1 1 1 2 3 3 1 -1 -2 -1 -1 -0 -1 -1 -0 -0 -0 -1 -2 -2 -3 -3 -4 -4
2 2 2 2 2 1 1 -0 0 1 1 1 1 0 -0 -0 -0 0 0 0 1 1 1 1 1 2 2 1 -1 -1 -1 -1 -1 -1 -1 -0 0 -0 -1 -2 -2 -3 -3 -4 -4
1 1 1 2 2 1 -0 -0 0 1 1 1 0 -0 -0 -0 -0 -0 -0 0 1 2 2 1 1 2 3 2 1 0 -0 -1 -1 -1 -1 -0 0 -0 -0 -1 -1 -2 -3 -3 -4
1 1 1 1 1 0 -0 -0 0 1 1 0 -0 -0 0 -0 -0 -0 0 1 2 2 2 2 1 1 2 3 2 2 1 -0 -0 -0 -1 -0 0 0 0 0 -0 -1 -2 -3 -3
1 1 1 1 1 1 1 1 1 1 1 0 0 0 0 0 0 0 0 1 2 2 2 2 1 1 2 3 3 2 1 0 -0 -0 -0 -0 0 1 1 0 -1 -2 -2 -3 -3
2 2 2 1 1 1 2 2 2 1 1 0 0 0 0 0 0 0 1 2 2 1 2 2 1 1 1 2 3 3 2 2 1 -0 -0 -0 0 1 1 0 -1 -2 -2 -3 -3
3 3 2 2 1 2 2 3 3 2 2 1 0 -0 -0 -0 -0 0 1 1 1 1 1 1 1 1 1 1 2 2 3 3 2 1 -0 -0 0 1 1 1 -0 -1 -2 -2 -2
3 3 3 3 2 2 3 3 3 3 2 2 1 0 -1 -1 -1 -0 0 0 1 1 1 1 1 1 1 2 2 2 3 4 3 2 0 -0 0 1 2 2 2 0 -1 -1 -2
3 3 3 3 3 3 3 3 3 3 2 2 2 1 1 -0 -0 -0 -0 -0 -0 -0 -1 -1 0 1 1 2 2 2 3 4 4 2 0 -0 1 2 3 4 4 3 2 0 0
3 3 3 3 3 3 3 3 3 3 2 2 2 2 2 1 1 0 0 -0 -1 -1 -1 -1 -1 -0 0 1 2 3 4 4 3 2 1 0 2 3 4 4 5 4 3 2 2